Location: Cussy
(47.0410°N, 4.6412°E)
Time: 20:56:44
(UTC+00:00)

Cosmos 1782 - Pass Details

Date: 30 November 2020
Orbit: 537 x 551 km, 82.5° (Epoch: 27 January)

Event Time Altitude Azimuth Distance (km) Brightness Sun altitude
Rises 18:00:48 0° 202° (SSW) 2,683 6.8 -20.8°
Reaches altitude 10° 18:03:00 10° 208° (SSW) 1,799 5.9 -21.2°
Maximum altitude 18:06:50 47° 283° (WNW) 727 3.8 -21.8°
Enters shadow 18:10:11 13° 356° (N) 1,623 5.1 -22.4°
